Regional Weather Roundup
Issued by NWS Albany, NY

Home | Current Version | Previous Version | Text Only | Print | Product List | Glossary On
Versions: 1 2 3 4 5 6 7 8 9 10 11 12 13 14 15 16 17 18 19 20 21 22 23 24 25 26 27 28 29 30 31 32 33 34 35 36 37 38 39 40 41 42 43 44 45 46 47 48 49 50
000
ASUS41 KALY 221810
RWRALY

NEW YORK STATE HOURLY WEATHER ROUNDUP
NATIONAL WEATHER SERVICE ALBANY NY
200 PM EDT MON SEP 22 2014

NOTE: "FAIR" INDICATES FEW OR NO CLOUDS BELOW 12,000 FEET WITH NO
SIGNIFICANT WEATHER AND/OR NO OBSTRUCTIONS TO VISIBILITY.

NYZ032-033-038>043-046>054-057>066-NYZ062>081-221900-
EAST


CITY           SKY/WX    TMP DP  RH WIND       PRES   REMARKS
ALBANY         PTSUNNY   60  44  55 W26G36    29.92R
GLENS FALLS    MOSUNNY   63  42  46 W14G22    29.87R
POUGHKEEPSIE   MOSUNNY   69  46  43 W17       29.89R
NEWBURGH       MOSUNNY   66  48  52 W21G32    29.92R
MONTGOMERY     CLOUDY    64  45  49 NW15G25   29.94R
WHITE PLAINS   MOSUNNY   68  47  46 NW16G28   29.89R
ISLIP          MOSUNNY   72  49  44 W15G26    29.86R
NEW YORK CITY  PTSUNNY   70  47  43 W17G28    29.90R
CENTRAL PARK   CLOUDY    68  47  46 VRB6      29.93R
$$

NYZ005>009-017-018-044>046-055-056-221900-
CENTRAL


CITY           SKY/WX    TMP DP  RH WIND       PRES   REMARKS
FULTON         CLOUDY    53  43  68 W16G22    30.02R
SYRACUSE       CLOUDY    55  41  59 W22G29    30.02R
ROME           CLOUDY    51  41  68 W13       30.01R
ELMIRA         CLOUDY    54  42  64 NW14      30.05S
BINGHAMTON     PTSUNNY   51  40  65 W15G25    30.01F
MONTICELLO     CLOUDY    54  45  71 NW16G24   29.99R
$$

NYZ026>034-041>043-221900-
NORTH


CITY           SKY/WX    TMP DP  RH WIND       PRES   REMARKS
WATERTOWN      CLOUDY    55  38  52 W15       29.99R
FORT DRUM      NOT AVBL
MASSENA        CLOUDY    50  39  66 W20G29    29.93R
SARANAC LAKE   CLOUDY    43  38  82 W13G21    29.89R
PLATTSBURGH    PTSUNNY   54  40  59 W15G23    29.87R
$$

NYZ001>004-010>016-019>021-221900-
WEST


CITY           SKY/WX    TMP DP  RH WIND       PRES   REMARKS
NIAGARA FALLS  CLOUDY    53  39  59 NW12      30.10R
BUFFALO        PTSUNNY   53  38  56 W13       30.10R
DUNKIRK        CLOUDY    53  40  61 W14G21    30.13S
JAMESTOWN      CLOUDY    48  39  71 NW7       30.12S
WELLSVILLE     CLOUDY    49  40  71 NW16G23   30.10R
ROCHESTER      CLOUDY    55  40  56 W15G24    30.06R
PENN YAN       CLOUDY    54  41  61 NW8       30.06R
$$

             KEY
       WCI = WIND CHILL INDEX
       VSB = VISIBILITY
       HX  = HEAT INDEX
$$



USA.gov is the U.S. government's official web portal to all federal, state and local government web resources and services.